Satellite-Ground Cal/Val Region Overpasses Predictions

Prediction of Satellite NPP Overpassing Cal/Val Region: PacNW

Region Location: (Latitude: 10.00, Longitude: 139.50) to (Latitude: 22.70, Longitude: 165.60).

Table of predicted overpasses for the next 14.0 days since TLE Epoch: 9/5/2015
Interval Starting Time Starting Location Ending Time Ending Location
1 09/06/2015 03:20:49 ( 10.04, 150.39) 09/06/2015 03:24:24 ( 22.66, 147.39)
2 09/06/2015 15:52:41 ( 22.66, 147.61) 09/06/2015 15:56:16 ( 10.03, 144.61)
3 09/07/2015 03:01:45 ( 10.01, 155.16) 09/07/2015 03:05:21 ( 22.69, 152.15)
4 09/07/2015 15:33:38 ( 22.68, 152.37) 09/07/2015 15:37:13 ( 10.06, 149.38)
5 09/08/2015 02:42:43 ( 10.05, 159.91) 09/08/2015 02:46:18 ( 22.67, 156.91)
6 09/08/2015 15:14:35 ( 22.64, 157.12) 09/08/2015 15:18:10 ( 10.02, 154.13)
7 09/09/2015 02:23:39 ( 10.03, 164.67) 09/09/2015 02:27:14 ( 22.65, 161.68)
8 09/09/2015 14:55:32 ( 22.67, 161.89) 09/09/2015 14:59:07 ( 10.04, 158.89)
9 09/10/2015 03:46:06 ( 10.01, 144.06) 09/10/2015 03:49:42 ( 22.69, 141.05)
10 09/10/2015 14:37:42 ( 18.35, 165.59) 09/10/2015 14:40:04 ( 10.00, 163.64)
11 09/10/2015 16:17:58 ( 22.68, 141.28) 09/10/2015 16:20:03 ( 15.34, 139.50)
12 09/11/2015 03:27:03 ( 10.05, 148.81) 09/11/2015 03:30:38 ( 22.67, 145.82)
13 09/11/2015 15:58:55 ( 22.70, 146.04) 09/11/2015 16:02:31 ( 10.01, 143.03)
14 09/12/2015 03:08:00 ( 10.03, 153.58) 09/12/2015 03:11:35 ( 22.65, 150.58)
15 09/12/2015 15:39:52 ( 22.66, 150.79) 09/12/2015 15:43:27 ( 10.04, 147.80)
16 09/13/2015 02:48:56 ( 10.01, 158.34) 09/13/2015 02:52:32 ( 22.69, 155.33)
17 09/13/2015 15:20:49 ( 22.68, 155.56) 09/13/2015 15:24:24 ( 10.05, 152.56)
18 09/14/2015 02:29:54 ( 10.05, 163.09) 09/14/2015 02:33:29 ( 22.67, 160.10)
19 09/14/2015 15:01:46 ( 22.70, 160.32) 09/14/2015 15:05:22 ( 10.02, 157.31)
20 09/15/2015 02:13:34 ( 19.66, 165.60) 09/15/2015 02:14:25 ( 22.65, 164.86)
21 09/15/2015 03:52:20 ( 10.04, 142.48) 09/15/2015 03:55:53 ( 22.55, 139.51)
22 09/15/2015 14:42:43 ( 22.66, 165.07) 09/15/2015 14:46:18 ( 10.03, 162.08)
23
